sat.trackr.live / text

‹ back to catalog

STARLINK-2386

NORAD 47805 · 2021-018U

PAYLOAD ACTIVE UNKNOWN

§ Identity

Operator
Country
US
Launch date
2021-03-11
Launch site
AFETR
Launch vehicle
Mass (kg)
RCS (m²)

Purposes: comms

External: N2YO · Heavens-Above · Gunter

§ Orbital elements

Epoch: 2026-09-20T01:36:19.297728Z

Period
94.20 min
Inclination
53.0841°
Eccentricity
0.0002520
Mean motion
15.28682714 rev/d
Perigee alt
478.0 km
Apogee alt
481.5 km
Semi-major
6,857.9 km
B*
8.2948e-4
RAAN
60.9211°
Arg perigee
109.2386°
Mean anomaly
250.8886°
Rev number
30,644

§ Raw data

STARLINK-23861 47805U 21018U   26263.06689002  .00023167  00000+0  82948-3 0  99982 47805  53.0841  60.9211 0002520 109.2386 250.8886 15.28682714306442

JSON: /api/v1/satellites/47805 · /tle

For live sub-satellite position, see the globe view (requires WebGL).

§ Visibility from observer

Set your observer location to see the next 7 days of passes ≥ 10°. The values pass through the URL so the page stays shareable.

No JS? Fill the form by hand. The geolocation button needs JavaScript.